Historyczne dane pomiarowe

Dodano dane terminowe – wersja testowa.

Dane z okresu 1951-2019

Wersja bazy: 1.34 [2019-03-16, lista zmian], aktualizacja planowana na 2019-04-15

Dane meteo z obszaru Polski uzyskane na podstawie danych udostępnionych przez Instytut Meteorologii i Gospodarki Wodnej – Państwowy Instytut Badawczy.

 

Wybierz Datę:    

       

TemperaturaWilgotnośćZachmurzenieWiatrCiśnienieWidzialnośćZjawiska
 Data    tng td wb rh cc ccl cl cm ch dir g1 g2 mslp ppp      
1973-05-01 00:00:00 3.6--- 2.5 3.092wxwxwx16wx--- 836.3 0.0---wx
1973-05-01 01:00:00 4.2------wxwxwx17wx--- 836.3----wx
1973-05-01 02:00:00 3.8------wxwxwx19wx--- 836.4----wx
1973-05-01 03:00:00 4.6--- 3.8 4.194wxwxwx19wx--- 836.4----wx
1973-05-01 04:00:00 4.8------wxwxwx16wx--- 836.4----wx
1973-05-01 05:00:00 5.2------wxwxwx11wx--- 836.7----wx
1973-05-01 06:00:00 6.0--- 1.9 4.075wxwxwx13wx--- 836.7 0.0---wx
1973-05-01 07:00:00 6.8------wxwxwx14wx--- 836.7----wx
1973-05-01 08:00:00 7.2------wxwxwx14wx--- 837.1----wx
1973-05-01 09:00:00 7.5--- 2.3 4.869wxwxwx15wx--- 837.3----wx
1973-05-01 10:00:00 8.3------wxwxwxwx12wx--- 837.6----wx
1973-05-01 11:00:00 9.1------wxwxwxwx12wx--- 837.1----wx
1973-05-01 12:00:00 9.7--- 2.3 5.959wxwxwxwx13wx--- 836.7 0.0---wx
1973-05-01 13:00:00 10.2------wxwxwxwxwx12wx--- 836.8----wx
1973-05-01 14:00:00 10.6------wxwxwxwxwx12wx--- 836.3----wx
1973-05-01 15:00:00 10.7--- 3.2 6.860wxwxwxwx12wx--- 835.8----wx
1973-05-01 16:00:00 10.3------wxwxwxwx12wx--- 835.8----wx
1973-05-01 17:00:00 9.3------wxwxwxwx10wx--- 835.2----wx
1973-05-01 18:00:00 8.7--- 3.4 5.969wxwxwxwx13wx--- 834.8 0.0---wx
1973-05-01 19:00:00 7.7------wxwxwxwx12wx--- 834.9----wx
1973-05-01 20:00:00 7.0------wxwxwx14wx--- 835.1----wx
1973-05-01 21:00:00 6.6--- 5.6 6.093wxwxwx18wx--- 834.8----wx
1973-05-01 22:00:00 6.6------wxwxwx16wx--- 835.4----wx
1973-05-01 23:00:00 8.3------wxwxwxwx12wx--- 835.5----wx

 

Źródłem pochodzenia danych jest Instytut Meteorologii i Gospodarki Wodnej – Państwowy Instytut Badawczy. Dane Instytutu Meteorologii i Gospodarki Wodnej – Państwowego Instytutu Badawczego zostały przetworzone.

Dane źródłowe można odnaleźć na stronie https://dane.imgw.pl